| time (UTC) | temp C | wind direction | speed KPH | gust KPH | rain 1hr cm | rain 24hr cm | rain mn cm | humidity % | barometer mb |
| 20260902191341 | 17 | 120 | 0.0 | 0.0 | 0.00 | 0.00 | 0.00 | 87 | 1018.2 |
| 20260902190841 | 17 | 120 | 0.0 | 0.0 | 0.00 | 0.00 | 0.00 | 86 | 1018.2 |
| 20260902190321 | 17 | 120 | 0.0 | 0.0 | 0.00 | 0.00 | 0.00 | 85 | 1018.2 |
| 20260902185822 | 17 | 120 | 0.0 | 0.0 | 0.00 | 0.00 | 0.00 | 84 | 1018.2 |
| 20260902185322 | 17 | 120 | 0.0 | 0.0 | 0.00 | 0.00 | 0.00 | 84 | 1018.1 |
| 20260902184823 | 18 | 120 | 0.0 | 0.0 | 0.00 | 0.00 | 0.00 | 84 | 1018.2 |
| 20260902184324 | 18 | 120 | 0.0 | 0.0 | 0.00 | 0.00 | 0.00 | 83 | 1018.1 |
| 20260902183842 | 18 | 120 | 0.0 | 0.0 | 0.00 | 0.00 | 0.00 | 82 | 1018.2 |
| 20260902183322 | 18 | 120 | 0.0 | 0.0 | 0.00 | 0.00 | 0.00 | 81 | 1018.1 |
| 20260902182844 | 18 | 120 | 0.0 | 0.0 | 0.00 | 0.00 | 0.00 | 81 | 1018.1 |
| 20260902182326 | 18 | 120 | 0.0 | 0.0 | 0.00 | 0.00 | 0.00 | 81 | 1017.9 |
| 20260902181849 | 18 | 120 | 0.0 | 0.0 | 0.00 | 0.00 | 0.00 | 81 | 1018.0 |
| 20260902181331 | 19 | 120 | 0.0 | 0.0 | 0.00 | 0.00 | 0.00 | 81 | 1017.9 |
| 20260902180813 | 19 | 120 | 0.0 | 0.0 | 0.00 | 0.00 | 0.00 | 81 | 1017.7 |
| 20260902180315 | 19 | 120 | 0.0 | 0.0 | 0.00 | 0.00 | 0.00 | 80 | 1017.7 |
| 20260902175816 | 19 | 120 | 0.0 | 1.6 | 0.00 | 0.00 | 0.00 | 80 | 1017.7 |
| 20260902175317 | 20 | 120 | 0.0 | 1.6 | 0.00 | 0.00 | 0.00 | 79 | 1017.7 |
| 20260902174817 | 20 | 120 | 0.0 | 1.6 | 0.00 | 0.00 | 0.00 | 78 | 1017.7 |
| 20260902174319 | 20 | 120 | 0.0 | 1.6 | 0.00 | 0.00 | 0.00 | 77 | 1017.6 |
| 20260902173821 | 20 | 120 | 0.0 | 0.0 | 0.00 | 0.00 | 0.00 | 76 | 1017.7 |
| 20260902173324 | 20 | 120 | 0.0 | 0.0 | 0.00 | 0.00 | 0.00 | 75 | 1017.6 |
| 20260902172826 | 20 | 120 | 0.0 | 0.0 | 0.00 | 0.00 | 0.00 | 74 | 1017.7 |
| 20260902172329 | 20 | 120 | 0.0 | 0.0 | 0.00 | 0.00 | 0.00 | 73 | 1017.7 |
| 20260902171812 | 21 | 120 | 0.0 | 1.6 | 0.00 | 0.00 | 0.00 | 73 | 1017.6 |
| 20260902171313 | 21 | 120 | 0.0 | 1.6 | 0.00 | 0.00 | 0.00 | 71 | 1017.6 |
| 20260902170813 | 21 | 120 | 0.0 | 1.6 | 0.00 | 0.00 | 0.00 | 69 | 1017.6 |
| 20260902170318 | 21 | 120 | 0.0 | 3.2 | 0.00 | 0.00 | 0.00 | 71 | 1017.5 |
| 20260902165841 | 21 | 120 | 1.6 | 3.2 | 0.00 | 0.10 | 0.00 | 72 | 1017.5 |
| 20260902165331 | 21 | 136 | 1.6 | 3.2 | 0.00 | 0.10 | 0.00 | 69 | 1017.5 |
| 20260902164813 | 21 | 13 | 0.0 | 3.2 | 0.00 | 0.10 | 0.00 | 68 | 1017.6 |
| 20260902164314 | 21 | 13 | 0.0 | 3.2 | 0.00 | 0.10 | 0.00 | 67 | 1017.6 |
| 20260902163814 | 21 | 13 | 0.0 | 1.6 | 0.00 | 0.10 | 0.00 | 68 | 1017.6 |
| 20260902163316 | 21 | 13 | 0.0 | 0.0 | 0.00 | 0.10 | 0.00 | 67 | 1017.7 |
| 20260902162838 | 21 | 13 | 0.0 | 0.0 | 0.00 | 0.10 | 0.00 | 66 | 1017.8 |
| 20260902162318 | 21 | 13 | 0.0 | 0.0 | 0.00 | 0.10 | 0.00 | 65 | 1017.8 |
| 20260902161838 | 22 | 13 | 0.0 | 0.0 | 0.00 | 0.10 | 0.00 | 62 | 1017.9 |
| 20260902161316 | 21 | 13 | 0.0 | 1.6 | 0.00 | 0.10 | 0.00 | 62 | 1017.9 |
| 20260902160816 | 22 | 13 | 0.0 | 1.6 | 0.00 | 0.10 | 0.00 | 64 | 1018.0 |
| 20260902160319 | 22 | 13 | 0.0 | 3.2 | 0.00 | 0.10 | 0.00 | 63 | 1018.0 |
| 20260902155822 | 22 | 276 | 0.0 | 3.2 | 0.00 | 0.10 | 0.00 | 63 | 1018.1 |
| 20260902155326 | 22 | 274 | 0.0 | 3.2 | 0.00 | 0.10 | 0.00 | 63 | 1018.1 |
| 20260902154828 | 22 | 274 | 1.6 | 3.2 | 0.00 | 0.10 | 0.00 | 63 | 1018.2 |
| 20260902154332 | 22 | 284 | 1.6 | 3.2 | 0.00 | 0.10 | 0.00 | 62 | 1018.2 |
| 20260902153816 | 22 | 312 | 0.0 | 3.2 | 0.00 | 0.10 | 0.00 | 62 | 1018.2 |
| 20260902153338 | 22 | 304 | 1.6 | 3.2 | 0.00 | 0.10 | 0.00 | 62 | 1018.3 |
| 20260902152817 | 22 | 299 | 0.0 | 6.4 | 0.00 | 0.10 | 0.00 | 62 | 1018.3 |
| 20260902152317 | 22 | 328 | 3.2 | 6.4 | 0.00 | 0.10 | 0.00 | 63 | 1018.3 |
| 20260902151817 | 22 | 357 | 3.2 | 6.4 | 0.00 | 0.10 | 0.00 | 62 | 1018.3 |
| 20260902151337 | 22 | 278 | 1.6 | 6.4 | 0.00 | 0.10 | 0.00 | 61 | 1018.3 |
| 20260902150817 | 22 | 323 | 3.2 | 6.4 | 0.00 | 0.10 | 0.00 | 60 | 1018.4 |
| 20260902150318 | 22 | 39 | 1.6 | 8.0 | 0.00 | 0.10 | 0.00 | 61 | 1018.4 |
| 20260902145819 | 22 | 265 | 3.2 | 8.0 | 0.00 | 0.10 | 0.00 | 63 | 1018.4 |
| 20260902145342 | 22 | 321 | 3.2 | 8.0 | 0.00 | 0.10 | 0.00 | 62 | 1018.5 |
| 20260902144823 | 22 | 4 | 3.2 | 8.0 | 0.00 | 0.10 | 0.00 | 63 | 1018.5 |
| 20260902144326 | 21 | 316 | 3.2 | 11.3 | 0.00 | 0.10 | 0.00 | 64 | 1018.5 |
| 20260902143828 | 22 | 354 | 4.8 | 11.3 | 0.00 | 0.10 | 0.00 | 63 | 1018.5 |
| 20260902143322 | 22 | 355 | 4.8 | 11.3 | 0.00 | 0.10 | 0.00 | 62 | 1018.6 |
| 20260902142823 | 22 | 303 | 4.8 | 11.3 | 0.00 | 0.10 | 0.00 | 62 | 1018.6 |
| 20260902142324 | 22 | 273 | 1.6 | 11.3 | 0.00 | 0.10 | 0.00 | 62 | 1018.6 |
| 20260902141827 | 22 | 22 | 6.4 | 11.3 | 0.00 | 0.10 | 0.00 | 61 | 1018.5 |
| 20260902141330 | 22 | 266 | 3.2 | 16.1 | 0.00 | 0.10 | 0.00 | 60 | 1018.5 |
| 20260902140813 | 22 | 262 | 8.0 | 16.1 | 0.00 | 0.10 | 0.00 | 59 | 1018.5 |
| 20260902140315 | 22 | 266 | 8.0 | 14.5 | 0.00 | 0.10 | 0.00 | 59 | 1018.6 |
| 20260902135837 | 22 | 278 | 6.4 | 12.9 | 0.00 | 0.10 | 0.00 | 61 | 1018.6 |
| 20260902135319 | 22 | 208 | 6.4 | 12.9 | 0.00 | 0.10 | 0.00 | 60 | 1018.6 |
| 20260902134820 | 22 | 236 | 4.8 | 14.5 | 0.00 | 0.10 | 0.00 | 60 | 1018.6 |
| 20260902134323 | 22 | 274 | 6.4 | 16.1 | 0.00 | 0.10 | 0.00 | 60 | 1018.6 |
| 20260902133824 | 22 | 254 | 6.4 | 16.1 | 0.00 | 0.10 | 0.00 | 60 | 1018.7 |
| 20260902133327 | 22 | 267 | 6.4 | 12.9 | 0.00 | 0.10 | 0.00 | 60 | 1018.8 |
| 20260902132829 | 22 | 277 | 8.0 | 14.5 | 0.00 | 0.10 | 0.00 | 61 | 1018.8 |
| 20260902132331 | 22 | 285 | 8.0 | 14.5 | 0.00 | 0.10 | 0.00 | 62 | 1018.8 |
| 20260902131834 | 22 | 250 | 3.2 | 11.3 | 0.00 | 0.10 | 0.00 | 62 | 1018.8 |
| 20260902131316 | 22 | 258 | 6.4 | 12.9 | 0.00 | 0.10 | 0.00 | 61 | 1018.8 |
| 20260902130821 | 22 | 273 | 6.4 | 12.9 | 0.00 | 0.10 | 0.00 | 60 | 1018.8 |
| 20260902130321 | 22 | 242 | 4.8 | 14.5 | 0.00 | 0.10 | 0.00 | 61 | 1018.8 |
| 20260902125842 | 22 | 207 | 4.8 | 14.5 | 0.00 | 0.10 | 0.00 | 62 | 1018.8 |
| 20260902125317 | 21 | 278 | 6.4 | 14.5 | 0.00 | 0.10 | 0.00 | 63 | 1018.9 |
| 20260902124820 | 21 | 259 | 6.4 | 14.5 | 0.00 | 0.10 | 0.00 | 62 | 1019.0 |
| 20260902124323 | 21 | 265 | 6.4 | 14.5 | 0.00 | 0.10 | 0.00 | 63 | 1019.0 |
| 20260902123824 | 21 | 281 | 6.4 | 12.9 | 0.00 | 0.10 | 0.00 | 63 | 1019.0 |
| 20260902123329 | 21 | 255 | 6.4 | 16.1 | 0.00 | 0.10 | 0.00 | 64 | 1019.1 |
| 20260902122813 | 21 | 252 | 6.4 | 16.1 | 0.00 | 0.10 | 0.00 | 64 | 1019.1 |
| 20260902122318 | 21 | 275 | 6.4 | 16.1 | 0.00 | 0.10 | 0.00 | 64 | 1019.1 |
| 20260902121823 | 21 | 225 | 11.3 | 17.7 | 0.00 | 0.10 | 0.00 | 63 | 1019.2 |
| 20260902121328 | 21 | 263 | 8.0 | 17.7 | 0.00 | 0.10 | 0.00 | 64 | 1019.2 |
| 20260902120316 | 21 | 278 | 3.2 | 12.9 | 0.00 | 0.10 | 0.00 | 64 | 1019.2 |
| 20260902115817 | 21 | 219 | 8.0 | 14.5 | 0.00 | 0.10 | 0.00 | 64 | 1019.2 |
| 20260902115347 | 21 | 257 | 3.2 | 11.3 | 0.00 | 0.10 | 0.00 | 65 | 1019.3 |
| 20260902114812 | 21 | 258 | 3.2 | 11.3 | 0.00 | 0.10 | 0.00 | 65 | 1019.2 |
| 20260902114317 | 21 | 222 | 6.4 | 14.5 | 0.00 | 0.10 | 0.00 | 63 | 1019.3 |
| 20260902113817 | 21 | 202 | 6.4 | 14.5 | 0.00 | 0.10 | 0.00 | 63 | 1019.3 |
| 20260902113337 | 21 | 245 | 3.2 | 16.1 | 0.00 | 0.10 | 0.00 | 63 | 1019.4 |
| 20260902112817 | 21 | 283 | 9.7 | 19.3 | 0.00 | 0.10 | 0.00 | 62 | 1019.4 |
| 20260902112318 | 21 | 242 | 4.8 | 11.3 | 0.00 | 0.10 | 0.00 | 63 | 1019.4 |
| 20260902111818 | 21 | 274 | 6.4 | 12.9 | 0.00 | 0.10 | 0.00 | 62 | 1019.4 |
| 20260902111319 | 21 | 274 | 6.4 | 12.9 | 0.00 | 0.10 | 0.00 | 62 | 1019.6 |
| 20260902110820 | 21 | 281 | 3.2 | 17.7 | 0.00 | 0.10 | 0.00 | 62 | 1019.5 |
| 20260902110321 | 21 | 279 | 1.6 | 17.7 | 0.00 | 0.10 | 0.00 | 64 | 1019.5 |
| 20260902105824 | 21 | 3 | 4.8 | 11.3 | 0.00 | 0.10 | 0.00 | 63 | 1019.5 |
| 20260902105327 | 21 | 250 | 3.2 | 9.7 | 0.00 | 0.10 | 0.00 | 64 | 1019.5 |
| 20260902104829 | 21 | 345 | 6.4 | 11.3 | 0.00 | 0.10 | 0.00 | 64 | 1019.6 |
| 20260902104330 | 21 | 266 | 3.2 | 11.3 | 0.00 | 0.10 | 0.00 | 64 | 1019.7 |
| 20260902103830 | 21 | 248 | 4.8 | 11.3 | 0.00 | 0.10 | 0.00 | 64 | 1019.7 |
| 20260902103330 | 21 | 264 | 4.8 | 9.7 | 0.00 | 0.10 | 0.00 | 65 | 1019.7 |
| 20260902102831 | 21 | 231 | 3.2 | 12.9 | 0.00 | 0.10 | 0.00 | 65 | 1019.7 |
| 20260902102348 | 21 | 262 | 4.8 | 12.9 | 0.00 | 0.10 | 0.00 | 65 | 1019.8 |
| 20260902101813 | 21 | 283 | 4.8 | 9.7 | 0.00 | 0.10 | 0.00 | 65 | 1019.8 |
| 20260902101316 | 21 | 274 | 4.8 | 14.5 | 0.00 | 0.10 | 0.00 | 65 | 1019.8 |
| 20260902100819 | 21 | 219 | 6.4 | 14.5 | 0.00 | 0.10 | 0.00 | 65 | 1019.8 |
| 20260902100322 | 21 | 267 | 8.0 | 19.3 | 0.00 | 0.10 | 0.00 | 64 | 1019.9 |
| 20260902095825 | 21 | 273 | 4.8 | 19.3 | 0.00 | 0.10 | 0.00 | 66 | 1019.9 |
| 20260902095344 | 21 | 276 | 4.8 | 9.7 | 0.00 | 0.10 | 0.00 | 66 | 1020.0 |
| 20260902094826 | 20 | 273 | 4.8 | 8.0 | 0.00 | 0.10 | 0.00 | 68 | 1020.0 |
| 20260902094329 | 20 | 267 | 3.2 | 9.7 | 0.00 | 0.10 | 0.00 | 68 | 1020.0 |
| 20260902093852 | 20 | 282 | 4.8 | 11.3 | 0.00 | 0.10 | 0.00 | 67 | 1019.9 |
| 20260902093334 | 20 | 255 | 6.4 | 11.3 | 0.00 | 0.10 | 0.00 | 67 | 1020.1 |
| 20260902092815 | 20 | 284 | 4.8 | 12.9 | 0.00 | 0.10 | 0.00 | 68 | 1020.1 |
| 20260902092339 | 20 | 252 | 4.8 | 14.5 | 0.00 | 0.10 | 0.00 | 68 | 1020.2 |
| 20260902091823 | 20 | 243 | 8.0 | 14.5 | 0.00 | 0.10 | 0.00 | 68 | 1020.1 |
| 20260902091324 | 20 | 255 | 4.8 | 12.9 | 0.00 | 0.10 | 0.00 | 70 | 1020.1 |
| 20260902090849 | 20 | 207 | 6.4 | 16.1 | 0.00 | 0.10 | 0.00 | 70 | 1020.2 |
| 20260902090330 | 20 | 274 | 3.2 | 11.3 | 0.00 | 0.10 | 0.00 | 70 | 1020.2 |
| 20260902085835 | 20 | 274 | 4.8 | 11.3 | 0.00 | 0.10 | 0.00 | 69 | 1020.2 |
| 20260902085315 | 20 | 284 | 3.2 | 9.7 | 0.00 | 0.10 | 0.00 | 70 | 1020.2 |
| 20260902084816 | 20 | 263 | 3.2 | 8.0 | 0.00 | 0.10 | 0.00 | 71 | 1020.1 |
| 20260902084318 | 19 | 219 | 3.2 | 9.7 | 0.00 | 0.10 | 0.00 | 71 | 1020.1 |
| 20260902083818 | 19 | 267 | 1.6 | 11.3 | 0.00 | 0.10 | 0.00 | 72 | 1020.1 |
| 20260902083318 | 19 | 269 | 6.4 | 11.3 | 0.00 | 0.10 | 0.00 | 72 | 1020.2 |
| 20260902082819 | 19 | 321 | 1.6 | 8.0 | 0.00 | 0.10 | 0.00 | 72 | 1020.1 |
| 20260902082319 | 18 | 339 | 3.2 | 9.7 | 0.00 | 0.10 | 0.00 | 74 | 1020.2 |
| 20260902081819 | 18 | 219 | 4.8 | 11.3 | 0.00 | 0.10 | 0.00 | 75 | 1020.0 |
| 20260902081320 | 18 | 331 | 3.2 | 11.3 | 0.00 | 0.10 | 0.00 | 77 | 1020.1 |
| 20260902080315 | 18 | 196 | 1.6 | 8.0 | 0.00 | 0.10 | 0.00 | 77 | 1020.1 |
| 20260902075815 | 18 | 217 | 3.2 | 9.7 | 0.00 | 0.10 | 0.00 | 78 | 1020.1 |
| 20260902075316 | 18 | 326 | 3.2 | 11.3 | 0.00 | 0.10 | 0.00 | 78 | 1020.1 |
| 20260902074818 | 17 | 262 | 3.2 | 9.7 | 0.00 | 0.10 | 0.00 | 79 | 1020.2 |
| 20260902074319 | 17 | 300 | 3.2 | 8.0 | 0.00 | 0.10 | 0.00 | 80 | 1020.2 |
| 20260902073819 | 17 | 265 | 4.8 | 8.0 | 0.00 | 0.10 | 0.00 | 81 | 1020.2 |
| 20260902073323 | 17 | 265 | 1.6 | 9.7 | 0.00 | 0.10 | 0.00 | 82 | 1020.1 |
| 20260902072823 | 17 | 262 | 6.4 | 9.7 | 0.00 | 0.10 | 0.00 | 82 | 1020.1 |
| 20260902072326 | 17 | 266 | 3.2 | 8.0 | 0.00 | 0.10 | 0.00 | 83 | 1019.9 |
| 20260902071829 | 17 | 278 | 4.8 | 8.0 | 0.00 | 0.10 | 0.00 | 83 | 1019.9 |
| 20260902071331 | 17 | 271 | 3.2 | 6.4 | 0.00 | 0.10 | 0.00 | 84 | 1019.8 |
| 20260902070834 | 16 | 215 | 4.8 | 9.7 | 0.00 | 0.10 | 0.00 | 86 | 1019.8 |
| 20260902070314 | 16 | 267 | 4.8 | 11.3 | 0.00 | 0.10 | 0.00 | 86 | 1019.9 |
| 20260902065816 | 16 | 276 | 6.4 | 11.3 | 0.00 | 0.10 | 0.00 | 87 | 1019.9 |
| 20260902065315 | 16 | 281 | 3.2 | 11.3 | 0.00 | 0.10 | 0.00 | 89 | 1019.9 |
| 20260902064817 | 16 | 282 | 6.4 | 11.3 | 0.00 | 0.10 | 0.00 | 89 | 1020.0 |
| 20260902064320 | 16 | 274 | 4.8 | 12.9 | 0.00 | 0.10 | 0.00 | 90 | 1019.9 |
| 20260902063822 | 15 | 248 | 6.4 | 12.9 | 0.00 | 0.10 | 0.00 | 90 | 1019.9 |
| 20260902063326 | 15 | 292 | 4.8 | 8.0 | 0.00 | 0.10 | 0.00 | 91 | 1020.0 |
| 20260902062829 | 15 | 278 | 4.8 | 9.7 | 0.00 | 0.10 | 0.00 | 91 | 1020.0 |
| 20260902062313 | 15 | 264 | 3.2 | 11.3 | 0.00 | 0.10 | 0.00 | 92 | 1020.0 |
| 20260902061815 | 15 | 276 | 4.8 | 11.3 | 0.00 | 0.10 | 0.00 | 92 | 1020.1 |
| 20260902061316 | 15 | 267 | 4.8 | 11.3 | 0.00 | 0.10 | 0.00 | 93 | 1020.1 |
| 20260902060821 | 14 | 266 | 6.4 | 11.3 | 0.00 | 0.10 | 0.00 | 92 | 1020.1 |
| 20260902060323 | 15 | 274 | 6.4 | 9.7 | 0.00 | 0.10 | 0.00 | 93 | 1020.1 |
| 20260902055845 | 14 | 263 | 4.8 | 11.3 | 0.00 | 0.10 | 0.00 | 93 | 1020.2 |
| 20260902055325 | 14 | 278 | 3.2 | 12.9 | 0.00 | 0.10 | 0.00 | 94 | 1020.2 |
| 20260902054829 | 14 | 275 | 6.4 | 12.9 | 0.00 | 0.10 | 0.00 | 94 | 1020.2 |
| 20260902054329 | 14 | 218 | 6.4 | 11.3 | 0.00 | 0.10 | 0.00 | 94 | 1020.1 |
| 20260902053832 | 14 | 265 | 4.8 | 12.9 | 0.00 | 0.10 | 0.00 | 93 | 1020.1 |
| 20260902053331 | 14 | 224 | 6.4 | 12.9 | 0.00 | 0.10 | 0.00 | 93 | 1020.1 |
| 20260902052851 | 14 | 276 | 6.4 | 9.7 | 0.00 | 0.10 | 0.00 | 94 | 1020.0 |
| 20260902052331 | 14 | 267 | 3.2 | 9.7 | 0.00 | 0.10 | 0.00 | 94 | 1020.0 |
| 20260902051852 | 14 | 273 | 4.8 | 9.7 | 0.00 | 0.10 | 0.00 | 94 | 1019.9 |
| 20260902051332 | 14 | 283 | 4.8 | 9.7 | 0.00 | 0.10 | 0.00 | 94 | 1019.8 |
| 20260902050832 | 13 | 271 | 4.8 | 8.0 | 0.00 | 0.10 | 0.00 | 95 | 1019.7 |
| 20260902050332 | 13 | 248 | 4.8 | 6.4 | 0.00 | 0.10 | 0.00 | 95 | 1019.6 |
| 20260902045852 | 13 | 261 | 3.2 | 6.4 | 0.00 | 0.10 | 0.00 | 95 | 1019.6 |
| 20260902045349 | 13 | 257 | 3.2 | 4.8 | 0.00 | 0.10 | 0.00 | 95 | 1019.5 |
| 20260902044829 | 13 | 260 | 1.6 | 4.8 | 0.00 | 0.10 | 0.00 | 95 | 1019.4 |
| 20260902044350 | 13 | 257 | 1.6 | 6.4 | 0.00 | 0.10 | 0.00 | 95 | 1019.4 |
| 20260902043812 | 13 | 262 | 3.2 | 4.8 | 0.00 | 0.10 | 0.00 | 95 | 1019.3 |
| 20260902043331 | 13 | 270 | 1.6 | 3.2 | 0.00 | 0.10 | 0.00 | 94 | 1019.2 |
| 20260902042830 | 13 | 270 | 0.0 | 4.8 | 0.00 | 0.10 | 0.00 | 94 | 1019.2 |
| 20260902042334 | 13 | 265 | 1.6 | 4.8 | 0.00 | 0.10 | 0.00 | 94 | 1019.1 |
| 20260902041815 | 13 | 262 | 1.6 | 4.8 | 0.00 | 0.10 | 0.00 | 94 | 1019.1 |
| 20260902041318 | 13 | 262 | 1.6 | 4.8 | 0.00 | 0.10 | 0.00 | 94 | 1019.1 |
| 20260902040821 | 13 | 264 | 1.6 | 4.8 | 0.00 | 0.10 | 0.00 | 94 | 1019.1 |
| 20260902040323 | 13 | 261 | 1.6 | 4.8 | 0.00 | 0.10 | 0.00 | 93 | 1019.1 |
| 20260902035825 | 13 | 265 | 1.6 | 4.8 | 0.00 | 0.10 | 0.00 | 93 | 1019.0 |
| 20260902035345 | 13 | 261 | 1.6 | 4.8 | 0.00 | 0.10 | 0.00 | 93 | 1019.0 |
| 20260902034824 | 14 | 262 | 1.6 | 4.8 | 0.00 | 0.10 | 0.00 | 93 | 1019.0 |
| 20260902034324 | 14 | 263 | 1.6 | 6.4 | 0.00 | 0.10 | 0.00 | 93 | 1019.1 |
| 20260902033825 | 14 | 262 | 3.2 | 6.4 | 0.00 | 0.10 | 0.00 | 93 | 1019.1 |
| 20260902033328 | 14 | 265 | 3.2 | 8.0 | 0.00 | 0.10 | 0.00 | 93 | 1019.1 |
| 20260902032851 | 14 | 255 | 3.2 | 8.0 | 0.00 | 0.10 | 0.00 | 93 | 1019.0 |
| 20260902032312 | 14 | 269 | 3.2 | 4.8 | 0.00 | 0.10 | 0.00 | 93 | 1019.0 |
| 20260902031835 | 14 | 276 | 3.2 | 4.8 | 0.00 | 0.10 | 0.00 | 92 | 1019.0 |
| 20260902031314 | 14 | 264 | 1.6 | 3.2 | 0.00 | 0.10 | 0.00 | 92 | 1018.9 |
| 20260902030816 | 14 | 262 | 1.6 | 3.2 | 0.00 | 0.10 | 0.00 | 92 | 1018.9 |
| 20260902030317 | 14 | 269 | 1.6 | 4.8 | 0.00 | 0.10 | 0.00 | 92 | 1018.9 |
| 20260902025819 | 15 | 264 | 1.6 | 4.8 | 0.00 | 0.10 | 0.00 | 92 | 1018.9 |
| 20260902025321 | 15 | 264 | 1.6 | 4.8 | 0.00 | 0.10 | 0.00 | 92 | 1019.0 |
| 20260902024822 | 15 | 262 | 1.6 | 4.8 | 0.00 | 0.10 | 0.00 | 91 | 1019.0 |
| 20260902024325 | 15 | 276 | 3.2 | 4.8 | 0.00 | 0.10 | 0.00 | 91 | 1019.0 |
| 20260902023828 | 15 | 269 | 1.6 | 6.4 | 0.00 | 0.10 | 0.00 | 91 | 1019.0 |
| 20260902023331 | 15 | 261 | 3.2 | 6.4 | 0.00 | 0.10 | 0.00 | 91 | 1019.2 |
| 20260902022837 | 15 | 250 | 3.2 | 6.4 | 0.00 | 0.10 | 0.00 | 91 | 1019.1 |
| 20260902022319 | 15 | 271 | 1.6 | 6.4 | 0.00 | 0.10 | 0.00 | 90 | 1019.1 |
| 20260902021820 | 15 | 269 | 3.2 | 6.4 | 0.00 | 0.10 | 0.00 | 90 | 1019.1 |
| 20260902021342 | 15 | 272 | 3.2 | 6.4 | 0.00 | 0.10 | 0.00 | 90 | 1019.1 |
| 20260902020842 | 15 | 267 | 3.2 | 6.4 | 0.00 | 0.10 | 0.00 | 90 | 1019.0 |
| 20260902020322 | 15 | 273 | 3.2 | 6.4 | 0.00 | 0.10 | 0.00 | 89 | 1019.1 |
| 20260902015843 | 15 | 266 | 3.2 | 6.4 | 0.00 | 0.10 | 0.00 | 89 | 1019.1 |
| 20260902015323 | 15 | 271 | 3.2 | 8.0 | 0.00 | 0.10 | 0.00 | 89 | 1019.1 |
| 20260902014844 | 16 | 263 | 4.8 | 8.0 | 0.00 | 0.10 | 0.00 | 88 | 1019.1 |
| 20260902014342 | 16 | 264 | 4.8 | 8.0 | 0.00 | 0.10 | 0.00 | 88 | 1019.1 |
| 20260902013814 | 16 | 268 | 3.2 | 8.0 | 0.00 | 0.10 | 0.00 | 88 | 1019.1 |
| 20260902013313 | 16 | 272 | 6.4 | 8.0 | 0.00 | 0.10 | 0.00 | 88 | 1019.1 |
| 20260902012813 | 16 | 267 | 4.8 | 11.3 | 0.00 | 0.10 | 0.00 | 88 | 1019.1 |
| 20260902012313 | 16 | 271 | 3.2 | 11.3 | 0.00 | 0.10 | 0.00 | 87 | 1019.0 |
| 20260902011813 | 16 | 271 | 4.8 | 8.0 | 0.00 | 0.10 | 0.00 | 87 | 1019.0 |
| 20260902011314 | 16 | 243 | 4.8 | 8.0 | 0.00 | 0.10 | 0.00 | 87 | 1019.0 |
| 20260902010813 | 16 | 255 | 3.2 | 8.0 | 0.00 | 0.10 | 0.00 | 87 | 1019.0 |
| 20260902010313 | 16 | 263 | 4.8 | 8.0 | 0.00 | 0.10 | 0.00 | 87 | 1019.0 |
| 20260902005814 | 16 | 272 | 3.2 | 8.0 | 0.00 | 0.10 | 0.00 | 87 | 1018.9 |
| 20260902005336 | 16 | 256 | 3.2 | 6.4 | 0.00 | 0.10 | 0.00 | 87 | 1018.9 |
| 20260902004816 | 16 | 243 | 1.6 | 8.0 | 0.00 | 0.10 | 0.00 | 87 | 1018.9 |
| 20260902004336 | 16 | 248 | 1.6 | 8.0 | 0.00 | 0.10 | 0.00 | 87 | 1018.9 |
| 20260902003817 | 16 | 275 | 3.2 | 6.4 | 0.00 | 0.10 | 0.00 | 87 | 1018.9 |
| 20260902003320 | 16 | 267 | 1.6 | 8.0 | 0.00 | 0.10 | 0.00 | 87 | 1018.9 |
| 20260902002823 | 16 | 259 | 3.2 | 8.0 | 0.00 | 0.10 | 0.00 | 87 | 1018.9 |
| 20260902002326 | 16 | 266 | 4.8 | 8.0 | 0.00 | 0.10 | 0.00 | 86 | 1019.0 |
| 20260902001829 | 16 | 266 | 3.2 | 8.0 | 0.00 | 0.10 | 0.00 | 87 | 1018.9 |
| 20260902001332 | 16 | 262 | 3.2 | 6.4 | 0.00 | 0.10 | 0.00 | 86 | 1018.9 |
| 20260902000814 | 16 | 264 | 3.2 | 8.0 | 0.00 | 0.10 | 0.00 | 86 | 1018.9 |
| 20260902000316 | 16 | 262 | 3.2 | 8.0 | 0.00 | 0.10 | 0.00 | 86 | 1019.0 |
| 20260901235819 | 16 | 246 | 3.2 | 8.0 | 0.00 | 0.10 | 0.00 | 86 | 1019.0 |
| 20260901235321 | 16 | 267 | 4.8 | 9.7 | 0.00 | 0.10 | 0.00 | 86 | 1018.9 |
| 20260901234824 | 16 | 260 | 3.2 | 9.7 | 0.00 | 0.10 | 0.00 | 86 | 1018.9 |
| 20260901234326 | 16 | 242 | 3.2 | 8.0 | 0.00 | 0.10 | 0.00 | 86 | 1018.9 |
| 20260901233915 | 16 | 262 | 3.2 | 8.0 | 0.00 | 0.10 | 0.00 | 86 | 1018.9 |
| 20260901233353 | 16 | 271 | 3.2 | 6.4 | 0.00 | 0.10 | 0.00 | 86 | 1018.9 |
| 20260901232813 | 16 | 267 | 3.2 | 6.4 | 0.00 | 0.10 | 0.00 | 86 | 1018.9 |
| 20260901232315 | 16 | 262 | 3.2 | 8.0 | 0.00 | 0.10 | 0.00 | 86 | 1018.9 |
| 20260901231327 | 16 | 209 | 4.8 | 11.3 | 0.00 | 0.10 | 0.00 | 86 | 1019.0 |
| 20260901230830 | 16 | 258 | 6.4 | 11.3 | 0.00 | 0.10 | 0.00 | 86 | 1018.9 |
| 20260901230331 | 16 | 259 | 4.8 | 9.7 | 0.00 | 0.10 | 0.00 | 86 | 1018.8 |
| 20260901225814 | 16 | 268 | 4.8 | 9.7 | 0.00 | 0.10 | 0.00 | 86 | 1018.8 |
| 20260901225317 | 16 | 261 | 4.8 | 9.7 | 0.00 | 0.10 | 0.00 | 86 | 1018.7 |
| 20260901224840 | 16 | 260 | 4.8 | 9.7 | 0.00 | 0.10 | 0.00 | 87 | 1018.7 |
| 20260901224322 | 16 | 264 | 4.8 | 9.7 | 0.00 | 0.10 | 0.00 | 87 | 1018.7 |
| 20260901223826 | 16 | 264 | 1.6 | 6.4 | 0.00 | 0.10 | 0.00 | 87 | 1018.7 |
| 20260901223327 | 16 | 271 | 3.2 | 6.4 | 0.00 | 0.10 | 0.00 | 88 | 1018.6 |
| 20260901222828 | 16 | 267 | 3.2 | 9.7 | 0.00 | 0.10 | 0.00 | 88 | 1018.6 |
| 20260901222327 | 16 | 274 | 4.8 | 9.7 | 0.00 | 0.10 | 0.00 | 88 | 1018.5 |
| 20260901221827 | 16 | 262 | 4.8 | 9.7 | 0.00 | 0.10 | 0.00 | 89 | 1018.5 |
| 20260901221348 | 16 | 259 | 4.8 | 6.4 | 0.00 | 0.10 | 0.00 | 90 | 1018.5 |
| 20260901220827 | 16 | 264 | 1.6 | 6.4 | 0.00 | 0.10 | 0.00 | 91 | 1018.5 |
| 20260901220327 | 16 | 271 | 1.6 | 4.8 | 0.00 | 0.10 | 0.00 | 91 | 1018.5 |
| 20260901215828 | 16 | 262 | 0.0 | 0.0 | 0.00 | 0.10 | 0.03 | 91 | 1018.5 |
| 20260901215326 | 16 | 262 | 0.0 | 0.0 | 0.00 | 0.10 | 0.03 | 91 | 1018.5 |
| 20260901214848 | 16 | 263 | 0.0 | 0.0 | 0.00 | 0.10 | 0.03 | 91 | 1018.4 |
| 20260901214330 | 16 | 268 | 0.0 | 0.0 | 0.00 | 0.10 | 0.03 | 91 | 1018.4 |
| 20260901213814 | 16 | 268 | 0.0 | 0.0 | 0.00 | 0.10 | 0.03 | 90 | 1018.4 |
| 20260901213316 | 16 | 268 | 0.0 | 0.0 | 0.00 | 0.10 | 0.03 | 90 | 1018.5 |
| 20260901212819 | 16 | 268 | 0.0 | 0.0 | 0.00 | 0.10 | 0.03 | 89 | 1018.5 |
| 20260901212322 | 16 | 268 | 0.0 | 0.0 | 0.00 | 0.10 | 0.03 | 89 | 1018.4 |
| 20260901211825 | 17 | 268 | 0.0 | 0.0 | 0.00 | 0.10 | 0.03 | 89 | 1018.3 |
| 20260901211329 | 17 | 268 | 0.0 | 3.2 | 0.00 | 0.10 | 0.03 | 88 | 1018.4 |
| 20260901210814 | 17 | 268 | 0.0 | 4.8 | 0.00 | 0.10 | 0.03 | 88 | 1018.5 |
| 20260901210336 | 17 | 269 | 3.2 | 4.8 | 0.00 | 0.10 | 0.03 | 88 | 1018.4 |
| 20260901205820 | 17 | 264 | 1.6 | 3.2 | 0.00 | 0.10 | 0.03 | 88 | 1018.5 |
| 20260901205323 | 17 | 264 | 0.0 | 4.8 | 0.00 | 0.10 | 0.03 | 87 | 1018.4 |
| 20260901204828 | 17 | 264 | 1.6 | 4.8 | 0.00 | 0.10 | 0.03 | 87 | 1018.4 |
| 20260901204331 | 17 | 267 | 3.2 | 4.8 | 0.00 | 0.10 | 0.03 | 86 | 1018.4 |
| 20260901203815 | 17 | 264 | 3.2 | 6.4 | 0.00 | 0.10 | 0.03 | 86 | 1018.4 |
| 20260901203317 | 17 | 283 | 3.2 | 8.0 | 0.00 | 0.10 | 0.03 | 86 | 1018.3 |
| 20260901202815 | 17 | 277 | 4.8 | 8.0 | 0.00 | 0.10 | 0.03 | 85 | 1018.3 |
| 20260901202335 | 17 | 271 | 3.2 | 9.7 | 0.00 | 0.10 | 0.03 | 86 | 1018.2 |
| 20260901201834 | 17 | 272 | 4.8 | 9.7 | 0.00 | 0.10 | 0.03 | 86 | 1018.3 |
| 20260901201313 | 17 | 278 | 3.2 | 9.7 | 0.00 | 0.10 | 0.03 | 87 | 1018.3 |
| 20260901200814 | 17 | 277 | 4.8 | 6.4 | 0.00 | 0.10 | 0.03 | 87 | 1018.3 |
| 20260901200334 | 17 | 271 | 1.6 | 8.0 | 0.00 | 0.10 | 0.03 | 88 | 1018.2 |
| 20260901195814 | 17 | 263 | 3.2 | 8.0 | 0.00 | 0.10 | 0.03 | 88 | 1018.2 |
| 20260901195316 | 17 | 265 | 1.6 | 6.4 | 0.00 | 0.10 | 0.03 | 88 | 1018.2 |
| 20260901194815 | 17 | 250 | 3.2 | 6.4 | 0.00 | 0.10 | 0.03 | 89 | 1018.2 |
| 20260901194314 | 17 | 236 | 3.2 | 6.4 | 0.00 | 0.10 | 0.03 | 90 | 1018.1 |
| 20260901193835 | 16 | 250 | 1.6 | 4.8 | 0.00 | 0.10 | 0.03 | 91 | 1018.1 |
| 20260901193313 | 16 | 248 | 0.0 | 3.2 | 0.00 | 0.10 | 0.03 | 91 | 1018.1 |
| 20260901192834 | 16 | 260 | 0.0 | 4.8 | 0.00 | 0.10 | 0.03 | 91 | 1018.0 |
| 20260901192315 | 16 | 260 | 1.6 | 4.8 | 0.00 | 0.10 | 0.03 | 91 | 1018.1 |
| 20260901191816 | 16 | 238 | 1.6 | 3.2 | 0.00 | 0.10 | 0.03 | 91 | 1017.9 |